Location: Narrabri
(30.3170°S, 149.7830°E)
Time: 09:05:39
(UTC+10:00)

ISS - Visible Passes

Search period start: 16 July 2018 00:00
Search period end: 26 July 2018 00:00
Orbit: 402 x 408 km, 51.6° (Epoch: 16 July)

Date Brightness Start Highest point End Pass type
(mag) Time Alt. Az. Time Alt. Az. Time Alt. Az.
16 Jul -3.4 17:41:40 10° SSW 17:44:52 44° SE 17:48:01 10° ENE visible
16 Jul -0.4 19:20:14 10° WNW 19:21:00 11° NW 19:21:45 10° NW visible
17 Jul -1.2 18:26:26 10° WSW 18:29:07 23° NW 18:31:48 10° N visible
24 Jul -0.7 05:50:11 10° N 05:52:27 17° NE 05:54:45 10° E visible
